Showing default

OPS 9322 (IDSCS 9), 2649

Orbit data source: Space-Track

OPS 9322 (IDSCS 9), 2649 is a payload satellite owned by USAF SSD (US) in GEO that was launched on Wed, 18 Jan 1967 UTC via a TITAN IIIC launch vehicle from the Air Force Eastern Test Range (AFETR). Payload-class satellites include a variety of spacecraft equipped with specific instruments for various scientific and technological missions. These include communications satellites like Starlink; space stations such as the ISS; scientific satellites like the Hubble; Earth observation satellites from companies like Planet Labs, Umbra, and HawkEye 360; GPS; miniature CubeSats for education and research; and military/defense satellites.

Not visible in the next 10 days
Identifier
2649, 1967-003B
Orbit
GEO
Country
Flag of USUS
Related business
Manufacturer
Philco-Ford WDL
Mission
Non-operational spacecraft
Bus & Motor
IDCSP, Unknown motor
Mass
45 kg wet, 45 kg dry
Launch date (UTC)
1967-01-18 (59 years ago)
Launch vehicle
TITAN IIIC
Launch site
Air Force Eastern Test Range (AFETR)
Object type
Payload
Rocket body
Debris
Shape & HBR
Unknown
Radar Cross Section
Medium (>0.1 m² and <1 m²)

Expand to show TLE details & history
Last TLE update: 11 hours ago

TLE from 11 hours ago
0 OPS 9322 (IDSCS 9)
1 02649U 67003B   25310.86433491 -.00000107  00000-0  00000-0 0  9995
2 02649   7.8896  46.5897 0034683 116.5047 245.6700  1.08282385137033
Epoch: 2025-11-06T20:44Z
TLE epoch observation values (Epoch: 2025-11-06T20:44:38.536Z)
Latitude
0.26359°
Longitude
50.88401°
Altitude
33,738.055 km
Speed
3.15 km/s
True Right ascension
03h 13m 26s
True Declination
0° 15' 48"
Sunlit
Object was in daylight at epoch
Visualization orbit readout
Latitude
Unknown
Longitude
Unknown
Altitude
Unknown
Speed
Unknown
Apparent Right ascension
Unknown
Apparent Declination
Unknown
Sunlit
N/A
Visualization observer readout
Local Sidereal Time
04:05:44
Azimuth
Unknown
Elevation
Unknown
Doppler factor
Unknown
Orbital elements
Apogee altitude
33,820.575 km
Perigee altitude
33,542.696 km
Semi-major axis
40,059.773 km
Eccentricity
0.00347
Inclination
7.8896°
RAAN
46.5897°
Arg. of periapsis
116.5047°
True anomaly
245.30851°
Mean anomaly
245.67°
Eccentric anomaly
245.48919°
Mean motion
0.2707 °/min
Orbital period
1,329.91 mins
BSTAR
0
Loading maneuver chart data...
Computing Atmospheric mass density...
Loading historical data...
Loading historical data...
Loading historical data...
Loading historical data...
Loading historical data...
Loading historical data...
Loading historical data...

Documentation

Showing up to 5 results
|